Location: Cz?stochówka
(50.8142°N, 19.0915°E)
Time: 19:34:28
(UTC+00:00)

Cosmos 2082 Rocket - Pass Details

Date: 13 January 2026
Orbit: 831 x 853 km, 71.0° (Epoch: 13 February)

Event Time Altitude Azimuth Distance (km) Brightness Sun altitude
Exits shadow 03:41:21 18° 356° (N) 1,988 4.1 -27.6°
Maximum altitude 03:44:34 29° 43° (NE) 1,515 3.8 -27.1°
Drops below altitude 10° 03:49:27 10° 103° (ESE) 2,471 5.6 -26.3°
Sets 03:52:14 0° 114° (ESE) 3,407 6.4 -25.8°
